Left ArrowRight Arrow

Hourly Observations for April 28, 2019

Temp ( °F °C ) Dew Point ( °F °C ) Humidity (%) Winds ( mph kmh ) Pressure ( in mb ) Visibility ( mi km ) Precip ( " mm )
12:51 am 00:51 Cloudy 43 6.1 29 -1.7 58 58 WSW 9 15 29.71 1006 10 16 0.00 0.00
1:51 am 01:51 Partly Cloudy 42 5.6 28 -2.2 58 58 W 8 13 29.73 1007 10 16 0.00 0.00
2:51 am 02:51 Mostly Cloudy 39 3.9 28 -2.2 65 65 W 6 9 29.75 1008 10 16 0.00 0.00
3:51 am 03:51 Clear 40 4.4 28 -2.2 63 63 W 5 7 29.79 1009 10 16 0.00 0.00
4:51 am 04:51 Clear 35 1.7 27 -2.8 72 72 Calm 29.81 1010 10 16 0.00 0.00
5:51 am 05:51 Sunny 38 3.3 28 -2.2 68 68 WNW 5 7 29.83 1010 10 16 0.00 0.00
6:51 am 06:51 Sunny 40 4.4 30 -1.1 68 68 SSW 5 7 29.86 1011 10 16 0.00 0.00
7:51 am 07:51 Mostly Sunny 44 6.7 31 -0.6 60 60 W 8 13 29.90 1013 10 16 0.00 0.00
8:51 am 08:51 Mostly Cloudy 47 8.3 32 0 56 56 W 13 20 29.91 1013 10 16 0.00 0.00
9:51 am 09:51 Partly Cloudy 49 9.4 33 0.6 55 55 NW 8 13 29.92 1013 10 16 0.00 0.00
10:51 am 10:51 Partly Cloudy 52 11.1 33 0.6 49 49 WNW 8 13 29.94 1014 10 16 0.00 0.00
11:51 am 11:51 Mostly Cloudy 52 11.1 32 0 47 47 WNW 9 15 29.94 1014 10 16 0.00 0.00
12:51 pm 12:51 Cloudy 55 12.8 33 0.6 44 44 WNW 6 9 29.94 1014 10 16 0.00 0.00
1:51 pm 13:51 Mostly Cloudy 52 11.1 35 1.7 53 53 ENE 8 13 29.95 1014 10 16 0.00 0.00
2:51 pm 14:51 Mostly Cloudy 55 12.8 36 2.2 49 49 VRB 7 11 29.94 1014 10 16 0.00 0.00
3:51 pm 15:51 Mostly Cloudy 53 11.7 35 1.7 51 51 E 8 13 29.94 1014 10 16 0.00 0.00
4:51 pm 16:51 Mostly Cloudy 56 13.3 32 0 40 40 VRB 6 9 29.95 1014 10 16 0.00 0.00
5:51 pm 17:51 Cloudy 55 12.8 32 0 42 42 W 6 9 29.97 1015 10 16 0.00 0.00
6:51 pm 18:51 Cloudy 54 12.2 33 0.6 45 45 W 6 9 29.98 1015 10 16 0.00 0.00
7:51 pm 19:51 Mostly Cloudy 52 11.1 31 -0.6 45 45 NW 7 11 30.00 1016 10 16 0.00 0.00
8:51 pm 20:51 Mostly Cloudy 50 10 29 -1.7 44 44 NW 9 15 30.04 1017 10 16 0.00 0.00
9:51 pm 21:51 Clear 47 8.3 28 -2.2 48 48 NW 13 20 30.07 1018 10 16 0.00 0.00
10:51 pm 22:51 Clear 46 7.8 25 -3.9 44 44 NW 14 22 30.10 1019 10 16 0.00 0.00
11:51 pm 23:51 Clear 44 6.7 24 -4.4 45 45 NNW 12 19 30.14 1021 10 16 0.00 0.00

Powered by Vaisala Xweather